When you browse on this site, cookies collect data to enhance your experience and personalize the content and advertising you see.
Visit our Privacy Policy to learn more. By continuing to use the site, you agree to this use of cookies and data.
  • In Czech Republic
  • List of Countries
  • For 7 days
  • Water Temperature
  • Weather Map
  • Weather Widgets
  • user-avatar
    Login

    Hourly Weather Olympia

    Today, 18 October, Friday

    Time Temperature Precipitation Wind Pressure Humidity
    00:00 +19°C° 0 mm 0 mps 762 mmHg 76%
    01:00 +21°C° 0 mm 1 mps 762 mmHg 76%
    02:00 +21°C° 0 mm 1 mps 762 mmHg 76%
    03:00 +20°C° 0 mm 1 mps 762 mmHg 77%
    04:00 +20°C° 0 mm 1 mps 762 mmHg 77%
    05:00 +21°C° 0 mm 1 mps 762 mmHg 74%
    06:00 +22°C° 0 mm 1 mps 762 mmHg 71%
    07:00 +23°C° 0 mm 1 mps 762 mmHg 68%
    08:00 +24°C° 0 mm 1 mps 762 mmHg 61%
    09:00 +26°C° 0 mm 1 mps 762 mmHg 54%
    10:00 +28°C° 0 mm 1 mps 762 mmHg 47%
    11:00 +28°C° 0 mm 1 mps 762 mmHg 47%
    12:00 +28°C° 0 mm 2 mps 762 mmHg 47%
    13:00 +28°C° 0 mm 2 mps 761 mmHg 47%
    14:00 +27°C° 0 mm 2 mps 761 mmHg 51%
    15:00 +27°C° 0 mm 2 mps 761 mmHg 55%
    16:00 +26°C° 0 mm 2 mps 761 mmHg 59%
    17:00 +24°C° 0.1 mm 2 mps 761 mmHg 66%
    18:00 +23°C° 0.1 mm 2 mps 761 mmHg 73%
    19:00 +21°C° 0.1 mm 2 mps 761 mmHg 80%
    20:00 +20°C° 0 mm 2 mps 762 mmHg 81%
    21:00 +20°C° 0 mm 2 mps 762 mmHg 81%
    22:00 +20°C° 0 mm 2 mps 762 mmHg 82%
    23:00 +20°C° 0 mm 2 mps 762 mmHg 82%

    Tomorrow, 19 October, Saturday

    Time Temperature Precipitation Wind Pressure Humidity
    00:00 +19°C° 0 mm 2 mps 762 mmHg 81%
    01:00 +19°C° 0 mm 2 mps 762 mmHg 81%
    02:00 +19°C° 0 mm 2 mps 762 mmHg 81%
    03:00 +19°C° 0 mm 2 mps 762 mmHg 80%
    04:00 +19°C° 0 mm 2 mps 762 mmHg 80%
    05:00 +19°C° 0 mm 2 mps 762 mmHg 77%
    06:00 +20°C° 0 mm 2 mps 762 mmHg 73%
    07:00 +21°C° 0 mm 2 mps 762 mmHg 70%
    08:00 +24°C° 0 mm 2 mps 762 mmHg 62%
    09:00 +26°C° 0 mm 2 mps 762 mmHg 54%
    10:00 +27°C° 0 mm 2 mps 763 mmHg 46%
    11:00 +28°C° 0 mm 3 mps 762 mmHg 44%
    12:00 +28°C° 0 mm 3 mps 762 mmHg 43%
    13:00 +29°C° 0 mm 3 mps 762 mmHg 41%
    14:00 +27°C° 0 mm 3 mps 762 mmHg 46%
    15:00 +26°C° 0 mm 4 mps 762 mmHg 50%
    16:00 +25°C° 0 mm 4 mps 762 mmHg 54%
    17:00 +23°C° 0 mm 4 mps 762 mmHg 60%
    18:00 +21°C° 0 mm 3 mps 762 mmHg 66%
    19:00 +20°C° 0 mm 3 mps 762 mmHg 73%
    20:00 +20°C° 0 mm 3 mps 763 mmHg 72%
    21:00 +20°C° 0 mm 3 mps 763 mmHg 71%
    22:00 +19°C° 0 mm 2 mps 763 mmHg 71%
    23:00 +19°C° 0 mm 2 mps 763 mmHg 71%

    Day after tomorrow, 20 October, Sunday

    Time Temperature Precipitation Wind Pressure Humidity
    00:00 +19°C° 0 mm 2 mps 763 mmHg 71%
    01:00 +19°C° 0 mm 2 mps 763 mmHg 71%
    02:00 +18°C° 0 mm 2 mps 763 mmHg 71%
    03:00 +18°C° 0 mm 2 mps 763 mmHg 70%
    04:00 +18°C° 0 mm 2 mps 763 mmHg 70%
    05:00 +19°C° 0 mm 2 mps 763 mmHg 67%
    06:00 +20°C° 0 mm 2 mps 763 mmHg 63%
    07:00 +20°C° 0 mm 2 mps 763 mmHg 60%
    08:00 +23°C° 0 mm 2 mps 763 mmHg 53%
    09:00 +26°C° 0 mm 2 mps 763 mmHg 46%
    10:00 +28°C° 0 mm 2 mps 764 mmHg 39%
    11:00 +28°C° 0 mm 2 mps 763 mmHg 39%
    12:00 +28°C° 0 mm 3 mps 763 mmHg 39%
    13:00 +28°C° 0 mm 3 mps 763 mmHg 39%
    14:00 +27°C° 0 mm 3 mps 763 mmHg 44%
    15:00 +26°C° 0 mm 3 mps 763 mmHg 49%
    16:00 +25°C° 0 mm 4 mps 763 mmHg 54%
    17:00 +24°C° 0 mm 3 mps 763 mmHg 61%
    18:00 +21°C° 0 mm 3 mps 763 mmHg 67%
    19:00 +20°C° 0 mm 2 mps 763 mmHg 74%
    20:00 +20°C° 0 mm 2 mps 764 mmHg 72%
    21:00 +20°C° 0 mm 2 mps 764 mmHg 71%
    22:00 +20°C° 0 mm 2 mps 764 mmHg 69%
    23:00 +19°C° 0 mm 2 mps 764 mmHg 68%

    21 October, Monday

    Time Temperature Precipitation Wind Pressure Humidity
    00:00 +19°C° 0 mm 2 mps 764 mmHg 68%
    01:00 +19°C° 0 mm 2 mps 763 mmHg 67%
    02:00 +19°C° 0 mm 2 mps 763 mmHg 67%
    03:00 +19°C° 0 mm 2 mps 763 mmHg 67%
    04:00 +19°C° 0 mm 2 mps 763 mmHg 66%
    05:00 +19°C° 0 mm 2 mps 763 mmHg 64%
    06:00 +20°C° 0 mm 2 mps 763 mmHg 63%
    07:00 +21°C° 0 mm 2 mps 763 mmHg 61%
    08:00 +24°C° 0 mm 2 mps 763 mmHg 54%
    09:00 +26°C° 0 mm 2 mps 764 mmHg 47%
    10:00 +29°C° 0 mm 2 mps 764 mmHg 41%
    11:00 +29°C° 0 mm 3 mps 763 mmHg 40%
    12:00 +29°C° 0 mm 3 mps 763 mmHg 39%
    13:00 +30°C° 0 mm 4 mps 763 mmHg 38%
    14:00 +28°C° 0 mm 4 mps 763 mmHg 44%
    15:00 +27°C° 0 mm 4 mps 762 mmHg 50%
    16:00 +26°C° 0 mm 4 mps 762 mmHg 56%
    17:00 +25°C° 0 mm 4 mps 762 mmHg 62%
    18:00 +22°C° 0 mm 4 mps 763 mmHg 69%
    19:00 +21°C° 0 mm 4 mps 763 mmHg 75%
    20:00 +21°C° 0 mm 4 mps 763 mmHg 72%
    21:00 +20°C° 0 mm 4 mps 763 mmHg 70%
    22:00 +20°C° 0 mm 3 mps 763 mmHg 67%
    23:00 +20°C° 0 mm 3 mps 763 mmHg 63%

    22 October, Tuesday

    Time Temperature Precipitation Wind Pressure Humidity
    00:00 +20°C° 0 mm 3 mps 763 mmHg 59%
    01:00 +20°C° 0 mm 3 mps 762 mmHg 54%
    02:00 +20°C° 0 mm 3 mps 762 mmHg 54%
    03:00 +19°C° 0 mm 3 mps 762 mmHg 54%
    04:00 +19°C° 0 mm 3 mps 762 mmHg 53%
    05:00 +20°C° 0 mm 3 mps 762 mmHg 52%
    06:00 +20°C° 0 mm 3 mps 762 mmHg 50%
    07:00 +21°C° 0 mm 3 mps 762 mmHg 48%
    08:00 +24°C° 0 mm 3 mps 762 mmHg 42%
    09:00 +27°C° 0 mm 2 mps 762 mmHg 36%
    10:00 +30°C° 0 mm 2 mps 763 mmHg 29%
    11:00 +30°C° 0 mm 3 mps 762 mmHg 28%
    12:00 +31°C° 0 mm 3 mps 762 mmHg 27%
    13:00 +31°C° 0 mm 3 mps 762 mmHg 26%
    14:00 +30°C° 0 mm 4 mps 761 mmHg 30%
    15:00 +28°C° 0 mm 4 mps 761 mmHg 35%
    16:00 +27°C° 0 mm 4 mps 761 mmHg 40%
    17:00 +26°C° 0 mm 4 mps 761 mmHg 42%
    18:00 +23°C° 0 mm 4 mps 762 mmHg 43%
    19:00 +22°C° 0 mm 4 mps 762 mmHg 45%
    20:00 +21°C° 0 mm 4 mps 762 mmHg 44%
    21:00 +21°C° 0 mm 4 mps 762 mmHg 44%
    22:00 +21°C° 0 mm 3 mps 762 mmHg 43%
    23:00 +20°C° 0 mm 3 mps 762 mmHg 43%

    23 October, Wednesday

    Time Temperature Precipitation Wind Pressure Humidity
    00:00 +20°C° 0 mm 3 mps 762 mmHg 43%
    01:00 +20°C° 0 mm 3 mps 762 mmHg 44%
    02:00 +19°C° 0 mm 3 mps 762 mmHg 43%
    03:00 +19°C° 0 mm 3 mps 762 mmHg 42%
    04:00 +19°C° 0 mm 3 mps 762 mmHg 41%
    05:00 +19°C° 0 mm 4 mps 762 mmHg 40%
    06:00 +20°C° 0 mm 4 mps 762 mmHg 38%
    07:00 +20°C° 0 mm 4 mps 762 mmHg 37%
    08:00 +24°C° 0 mm 3 mps 762 mmHg 32%
    09:00 +27°C° 0 mm 3 mps 762 mmHg 27%
    10:00 +30°C° 0 mm 3 mps 762 mmHg 22%
    11:00 +30°C° 0 mm 3 mps 762 mmHg 21%
    12:00 +30°C° 0 mm 3 mps 762 mmHg 21%
    13:00 +32°C° 0 mm 4 mps 762 mmHg 20%
    14:00 +30°C° 0 mm 4 mps 762 mmHg 23%
    15:00 +29°C° 0 mm 4 mps 761 mmHg 26%
    16:00 +28°C° 0 mm 4 mps 761 mmHg 30%
    17:00 +26°C° 0 mm 4 mps 762 mmHg 33%
    18:00 +23°C° 0 mm 4 mps 762 mmHg 36%
    19:00 +21°C° 0 mm 4 mps 762 mmHg 39%
    20:00 +21°C° 0 mm 4 mps 762 mmHg 39%
    21:00 +20°C° 0 mm 4 mps 763 mmHg 38%
    22:00 +20°C° 0 mm 4 mps 763 mmHg 38%
    23:00 +20°C° 0 mm 3 mps 763 mmHg 37%
    Show more